STARONE D1

导读 | 星芒AI

STARONE D1 是一颗由韩国研制并发射的地球观测卫星,主要用于农业、环境监测和灾害预警等领域。该卫星搭载高分辨率光学传感器,能够提供清晰的地表图像。2023年成功发射,标志着韩国在遥感技术领域的进一步发展。STARONE D1 与其他星座卫星协同工作,提升数据获取频率和应用能力,为政府和商业用户提供关键地理信息支持。

基本信息
目录编号:
41904
目录名称:
STARONE D1
国际标识:
2016-082B
轨道中心:
EARTH
卫星名称:
STARONE D1
卫星全名:
--
卫星状态:
在轨 (已飞行3234 天)
发射日期:
2016-12-21 UTC
国别 :
巴西 (BR)
星等 :
--
轨道信息
数据来源 国际轨道数据 AOE轨道数据
星历时间 2025-10-28T20:38:38+0800
19小时前
查看轨道信息
2025-10-25T16:00:00+0800
3天前
查看轨道信息
半长轴 42165.093km 42164.168km
偏心率 0.0002047 0.0001733
轨道倾角 0.029° 0.054°
近地点辐角 143.620° 142.464°
升交点赤经 89.643° 85.751°
平近点角 269.547° 201.797°
近地点 35778.326km 35778.725km
远地点 35795.59km 35793.341km
周期 1436.115分钟 1436.068分钟
每日圈数 1.002705 1.002738
详细信息
使用方式:
暂无
2D轨道图
3D轨道图
轨道高度分析图
轨道倾角分析图
轨道综合分析图
查看轨道综合分析图